www.pogodaiklimat.ru

Погода и климат >> Архив погоды >> Швеция >> Бюроклубб


ПОГОДА в Бюроклуббе

  • Прогноз погоды в Бюроклуббе
  • Монитор погоды в Бюроклуббе

АРХИВ ПОГОДЫ в Бюроклуббе

Время (UTC), дата Ветер
(напр.,м/с)
 
Видим.   Явления Облачность Т
(С)
Тd
(С)
f
(%)
Тe
(С)
Тes
(С)
Комфортность P
(гПа)
Po
(гПа)
Тmin
(С)
Tmax
(С)
R
(мм)
R24
(мм)
S
(см)
19 16.03 СВ 1
{3}
300 м слаб. снег ?/? -0.1 -0.3 99 -2 -2 995.2 990.6 0.1
20 16.03 штиль 0
{2}
800 м слаб. снег 10/10 180 м
[]
0.0 -0.2 99 -1 -1 995.3 990.8 0.1
21 16.03 штиль 0
{2}
200 м слаб. снег ?/? -0.2 -0.4 99 -2 -2 995.4 990.9 0.3
22 16.03 штиль 0 200 м слаб. снег ?/? -0.2 -0.4 99 -2 -2 995.5 991.0 0.3
23 16.03 штиль 0 200 м слаб. снег ?/? -0.4 -0.6 99 -2 -2 995.7 991.2 0.3
00 17.03 штиль 0 200 м слаб. снег ?/? -0.5 -0.7 99 -2 -2 995.8 991.3 0.3
01 17.03 штиль 0 400 м слаб. снег ?/? -0.6 -0.8 99 -2 -2 995.9 991.4 0.2
02 17.03 штиль 0 200 м туман {снег} ?/? -0.5 -0.7 99 -2 -2 995.9 991.4
03 17.03 штиль 0 600 м слаб. снег ?/? -0.5 -0.7 99 -2 -2 995.8 991.3
04 17.03 штиль 0 7000 м слаб. снег ?/? -0.7 -0.9 99 -2 -2 995.9 991.4
05 17.03 штиль 0 16 км в посл. час снег {ливн. осадки} ?/? -1.2 -1.4 99 -3 -3 996.2 991.7
06 17.03 штиль 0 40 км в посл. час снег {ливн. осадки} 10/10 90 м
[]
-1.5 -1.8 98 -3 -3 996.3 991.8 -1.5 -0.0
07 17.03 штиль 0 50 км 10/10 90 м
[]
-1.5 -1.9 97 -3 -3 996.9 992.3
08 17.03 штиль 0 30 км 10/10 120 м
[]
-1.7 -2.3 96 -3 -3 997.2 992.6
09 17.03 штиль 0 4600 м слаб. снег {осадки} 10/10 90 м
[]
-1.7 -2.3 96 -3 -3 997.4 992.9 0.2
10 17.03 штиль 0 4900 м слаб. снег {осадки} 10/10 120 м
[]
-1.7 -2.4 95 -3 -3 997.5 993.0 0.2
11 17.03 С 7
{8}
7000 м слаб. снег {осадки} ?/? -1.5 -2.2 95 -9 -9 997.5 992.9 0.3
12 17.03 С 7
{9}
5000 м осадки 10/10 120 м
[]
-1.7 -2.4 95 -9 -9 997.2 992.7
13 17.03 С 8
{10}
12 км в посл. час снег 10/10 90 м
[]
-1.8 -2.3 96 -10 -10 997.0 992.4 0.1
14 17.03 С 8
{10}
1500 м слаб. снег {осадки} ?/? -1.7 -2.1 97 -10 -10 996.8 992.2 0.2
15 17.03 С 9
{11}
2900 м слаб. снег {осадки} ?/? -1.7 -2.0 98 -10 -10 996.2 991.7 0.2
16 17.03 СВ 8 2000 м слаб. снег {осадки} ?/? -1.3 -1.6 98 -9 -9 996.0 991.5 0.2
17 17.03 СВ 6
{10}
1100 м слаб. снег {осадки} ?/? -0.5 -0.8 98 -8 -8 995.6 991.1 0.8
18 17.03 В 6
{10}
800 м туман {снег, осадки} ?/? -0.1 -0.2 99 -7 -7 994.9 990.4 -1.9 -0.0 0.1
19 17.03 В 7
{10}
1500 м в посл. час туман ?/? 0.0 -0.1 99 -7 -7 994.4 989.9
20 17.03 В 8
{11}
800 м осадки {туман} ?/? +0.1 -0.1 99 -8 -8 993.8 989.3
21 17.03 В 9
{12}
5000 м слаб. дождь со снегом ?/? +0.1 -0.1 99 -8 -8 992.8 988.3 0.1
22 17.03 В 10
{13}
1200 м слаб. снег {дождь} ?/? 0.0 -0.2 99 -8 -8 991.5 987.0 0.2
23 17.03 В 11
{15}
900 м слаб. снег {дождь} ?/? 0.0 -0.2 99 -9 -9 990.4 985.9 0.4
00 18.03 В 11
{16}
400 м снег {дождь} ?/? -0.0 -0.2 99 -9 -9 989.5 985.0 0.6
01 18.03 В 11
{16}
600 м снег ?/? 0.0 -0.2 99 -9 -9 989.2 984.7 1
02 18.03 В 8
{16}
2100 м слаб. снег ?/? 0.0 -0.2 99 -8 -8 989.0 984.5 0.5
03 18.03 ЮВ 4
{13}
11 км в посл. час снег {метель} 10/10 90 м
[]
-0.0 -0.2 99 -6 -6 989.5 985.1
04 18.03 ЮВ 3
{10}
1500 м слаб. снег ?/? 0.0 -0.1 99 -5 -5 989.9 985.4
05 18.03 ЮВ 3
{5}
1300 м в посл. час снег {ливн. осадки} ?/? 0.0 -0.1 99 -5 -5 990.4 985.9
06 18.03 ЮВ 3
{5}
400 м слаб. снег ?/? +0.1 -0.1 99 -5 -5 990.8 986.3 -0.1 +0.1 0.3
07 18.03 В 3
{5}
300 м слаб. снег ?/? +0.3 +0.1 99 -5 -5 991.4 986.9 1
08 18.03 В 2
{4}
400 м слаб. снег ?/? +0.2 +0.1 99 -4 -4 992.1 987.6 0.6
09 18.03 ЮВ 2 1900 м слаб. снег ?/? +0.4 +0.3 99 -3 -3 992.9 988.4 0.9
10 18.03 ЮВ 2
{4}
3300 м слаб. снег {дождь} ?/? +0.9 +0.7 99 -3 -3 993.5 989.0 0.8
11 18.03 С 2
{3}
300 м слаб. ливневой снег ?/? +0.5 +0.4 99 -3 -3 994.2 989.7 0.3
12 18.03 С 2
{3}
300 м осадки {ливн. осадки} ?/? +0.8 +0.6 99 -3 -3 995.1 990.5 0.1
13 18.03 С 4
{5}
200 м туман {ливн. осадки, дождь} ?/? +0.1 -0.1 99 -6 -6 995.8 991.2 0.1
14 18.03 С 6
{8}
300 м туман {ливн. осадки, дождь} ?/? -0.1 -0.2 99 -7 -7 996.4 991.9
15 18.03 С 8
{10}
8000 м в посл. час туман {ливн. осадки, дождь} ?/? -0.6 -0.9 98 -9 -9 997.5 992.9
16 18.03 С 8
{10}
500 м снег {ливн. осадки} ?/? -1.0 -1.3 98 -9 -9 998.5 993.9 0.5
17 18.03 С 9
{11}
1600 м слаб. снег ?/? -1.3 -1.5 99 -10 -10 999.3 994.8 0.8
18 18.03 С 8
{12}
1800 м слаб. снег ?/? -1.5 -1.7 99 -10 -10 1000.2 995.6 -1.5 +1.1 0.5
19 18.03 С 9 700 м снег {осадки} ?/? -1.7 -2.0 98 -10 -10 1001.1 996.5 0.4
20 18.03 С 9
{12}
2100 м слаб. снег {осадки} ?/? -1.9 -2.3 97 -11 -11 1001.7 997.1 0.3
21 18.03 С 10 1200 м слаб. снег {осадки} ?/? -2.2 -2.6 97 -11 -11 1002.2 997.6 0.3
22 18.03 С 9
{12}
5000 м слаб. снег {осадки} 10/4 210 м
[]
-2.6 -3.1 96 -11 -11 1003.1 998.5 0.1
23 18.03 С 9
{12}
2600 м слаб. снег {осадки} 10/1 210 м
[]
-3.1 -3.6 96 -12 -12 1003.8 999.2 0.1
00 19.03 С 9 13 км слаб. снег {осадки} 10/10 210 м
[]
-3.8 -4.5 95 -13 -13 1004.2 999.6 0.1
01 19.03 С 11
{13}
50 км в посл. час снег {метель} 10/10 500 м
[]
-3.6 -4.6 93 -13 -13 1004.9 1000.3 0.0
02 19.03 С 12
{14}
50 км {снег, метель} 10/5 570 м
[]
-3.8 -4.8 93 -14 -14 1005.8 1001.2
03 19.03 С 12
{15}
50 км {снег, метель} 10/10 700 м
[]
-3.7 -4.7 93 -14 -14 1006.6 1001.9
04 19.03 С 11 50 км {снег, метель} 10/4 540 м
[]
-4.4 -5.5 92 -14 -14 1007.6 1003.0
05 19.03 С 11
{14}
50 км {снег, метель} 10/10 480 м
[]
-4.2 -5.3 92 -14 -14 1008.5 1003.9
06 19.03 С 9 50 км {снег, метель} 10/10 480 м
[]
-3.7 -5.0 91 -13 -13 1009.5 1004.8 -4.6 -1.5
07 19.03 С 11
{14}
9000 м 10/10 450 м
[]
-3.2 -4.5 91 -13 -13 1010.1 1005.5
08 19.03 С 9 50 км 10/10 480 м
[]
-3.3 -5.1 87 -12 -12 1011.1 1006.5
09 19.03 С 9
{14}
50 км 10/10 600 м
[]
-2.6 -4.5 87 -11 -11 1011.9 1007.3
10 19.03 С 9
{13}
50 км 10/10 700 м
[]
-2.1 -4.5 84 -11 -11 1012.6 1008.0
11 19.03 С 9
{12}
50 км 10/10 800 м
[]
-1.8 -4.3 83 -10 -10 1013.2 1008.6
12 19.03 С 9
{12}
50 км 10/10 800 м
[]
-1.3 -4.0 82 -10 -10 1013.5 1008.9
13 19.03 С 7
{11}
50 км 10/10 800 м
[]
-1.0 -3.5 83 -8 -8 1014.3 1009.7
14 19.03 С 6
{10}
50 км 10/10 800 м
[]
-0.8 -3.1 84 -8 -8 1014.7 1010.1
15 19.03 СЗ 5
{9}
50 км 10/10 800 м
[]
-0.7 -2.9 85 -7 -7 1015.3 1010.7
16 19.03 СЗ 4
{7}
50 км 10/10 840 м
[]
-0.8 -2.5 88 -6 -6 1015.5 1010.8
17 19.03 СЗ 4
{6}
50 км 10/10 900 м
[]
-0.5 -3.6 80 -6 -6 1015.6 1011.0
18 19.03 С 3 50 км 10/10 870 м
[]
-0.7 -3.5 81 -5 -5 1015.8 1011.2 -0.2
19 19.03 ЮЗ 2
{5}
50 км 10/10 900 м
[]
-0.7 -3.5 81 -4 -4 1015.7 1011.1
20 19.03 ЮЗ 2
{4}
50 км 10/10 900 м
[]
-0.8 -3.4 83 -5 -5 1015.8 1011.2
21 19.03 Ю 2
{3}
50 км 10/10 870 м
[]
-1.2 -3.5 84 -5 -5 1015.4 1010.8
22 19.03 Ю 3
{5}
50 км 10/10 900 м
[]
-1.7 -3.6 87 -7 -7 1015.0 1010.3
23 19.03 Ю 4
{7}
50 км 10/10 900 м
[]
-2.1 -4.0 87 -8 -8 1014.5 1009.8
00 20.03 ЮЗ 4 50 км 10/10 800 м
[]
-2.8 -4.4 89 -9 -9 1014.0 1009.3
01 20.03 Ю 4
{7}
50 км ясно -4.0 -5.1 92 -10 -10 1013.4 1008.7
02 20.03 Ю 4 50 км ясно -4.9 -6.0 92 -11 -11 1012.4 1007.7
03 20.03 Ю 5
{8}
45 км ясно -4.0 -4.8 94 -11 -11 1011.5 1006.9
04 20.03 Ю 7
{11}
50 км 3/0
[]
-2.7 -3.8 92 -11 -11 1010.4 1005.8
05 20.03 Ю 10
{14}
29 км 9/6 210 м
[]
-2.0 -2.9 94 -11 -11 1009.1 1004.5
06 20.03 Ю 10
{15}
40 км 10/10 150 м
[]
-1.6 -2.4 94 -10 -10 1008.0 1003.4 -4.9 -0.3
07 20.03 Ю 9
{15}
45 км 10/10 150 м
[]
-1.5 -2.5 93 -10 -10 1007.4 1002.8
08 20.03 Ю 9 26 км 10/8 210 м
[]
-1.2 -2.5 91 -10 -10 1006.9 1002.3
09 20.03 Ю 8
{15}
1700 м слаб. ливневой снег 10/10 180 м
[]
-1.2 -1.8 96 -9 -9 1005.9 1001.3
10 20.03 Ю 7
{12}
1300 м слаб. снег н/о -0.7 -1.2 96 -8 -8 1005.3 1000.8 0.3
11 20.03 Ю 7
{12}
1700 м слаб. снег 10/10 120 м
[]
-0.6 -1.1 96 -8 -8 1004.9 1000.4 0.4
12 20.03 Ю 6
{12}
2600 м слаб. снег 10/10 120 м
[]
-0.4 -0.8 97 -7 -7 1004.8 1000.2 0.4
13 20.03 Ю 3
{9}
1600 м слаб. снег 10/9 90 м
[]
+0.1 -0.5 96 -5 -5 1004.9 1000.3 0.3
14 20.03 СЗ 5
{8}
50 км в посл. час снег {метель} 10/6 360 м
[]
+1.6 -0.3 87 -4 -4 1005.2 1000.6
15 20.03 З 6
{9}
50 км {снег, метель} 9/0
[]
+0.6 -1.7 85 -6 -6 1006.0 1001.5
16 20.03 З 3 50 км {снег, метель} 10/0
[]
-0.2 -1.4 92 -5 -5 1006.5 1002.0
17 20.03 ЮЗ 3
{6}
45 км {снег, метель} ясно -0.4 -0.8 97 -5 -5 1006.8 1002.2
18 20.03 ЮЗ 4
{5}
50 км {снег, метель} ясно -0.5 -0.8 98 -6 -6 1007.0 1002.4 +1.7
19 20.03 З 7
{9}
50 км ясно -0.6 -1.1 96 -8 -8 1007.2 1002.6
20 20.03 З 7 н/о ясно -0.3 -1.7 90 -8 -8 1007.5 1002.9
21 20.03 З 8
{10}
н/о ясно -1.3 -2.5 92 -9 -9 1007.5 1002.9
22 20.03 З 8
{10}
50 км ясно -0.9 -2.3 90 -9 -9 1008.1 1003.5
23 20.03 З 7 50 км ясно -0.4 -2.1 88 -8 -8 1008.4 1003.8
00 21.03 З 8
{9}
50 км ясно -1.2 -2.7 90 -9 -9 1008.7 1004.1
01 21.03 З 8 50 км ясно -1.5 -3.0 89 -10 -10 1008.9 1004.3
02 21.03 З 8
{10}
50 км ясно -1.3 -2.9 89 -9 -9 1009.1 1004.5
03 21.03 З 9
{10}
50 км 10/0
[]
-1.5 -3.3 88 -10 -10 1009.0 1004.4
04 21.03 З 6 50 км 10/9
[]
-1.1 -2.8 88 -8 -8 1008.8 1004.2
05 21.03 З 6
{9}
50 км 10/6
[]
-0.6 -2.7 86 -7 -7 1008.3 1003.7
06 21.03 ЮЗ 5
{8}
50 км 10/0
[]
0.0 -2.4 84 -6 -6 1007.6 1003.1 -1.7 +0.2
07 21.03 ЮЗ 4
{8}
50 км ясно +2.3 -1.3 77 -2 -1 1007.4 1002.9
08 21.03 Ю 6
{8}
50 км 8/0
[]
+0.9 -1.2 86 -5 -5 1006.8 1002.2
09 21.03 Ю 7
{10}
45 км 1/0
[]
+2.2 -0.9 80 -4 -3 1006.5 1001.9
11 21.03 Ю 8
{13}
40 км 10/10 1500 м
[]
+1.3 -0.7 87 -6 -6 1003.4 998.8
12 21.03 Ю 11
{17}
н/о 10/10 1350 м
[]
+1.6 -1.0 83 -6 -6 1002.1 997.6
13 21.03 Ю 9 н/о 6/0
[]
+2.8 -0.7 78 -4 -4 1001.7 997.2
14 21.03 З 11
{15}
50 км ясно +6.2 -0.4 63 0 0 1001.3 996.9
15 21.03 З 11
{31}
50 км в посл. час дождь {ливн. осадки} ?/? +3.2 +0.4 82 -4 -4 1003.4 998.9 0.1
17 21.03 З 16
{22}
50 км {ливн. осадки, дождь} ясно +3.2 -4.5 57 -5 -5 1005.3 1000.8
18 21.03 З 16
{23}
50 км {ливн. осадки, дождь} ясно +2.7 -5.5 55 -5 -5 1005.9 1001.4 0.0 +6.8
19 21.03 З 15 50 км ясно +1.6 -6.0 57 -7 -7 1007.4 1002.8
21 21.03 СЗ 17
{22}
50 км ясно +0.1 -6.6 61 -9 -9 1009.4 1004.8
22 21.03 З 17
{24}
50 км ясно -0.5 -6.5 64 -10 -10 1011.1 1006.5
23 21.03 З 13 50 км ясно -0.6 -6.7 63 -9 -9 1013.0 1008.4
00 22.03 СЗ 14
{20}
50 км ясно -1.0 -6.4 67 -10 -10 1014.0 1009.4
01 22.03 СЗ 14
{19}
50 км ясно -1.1 -6.4 67 -10 -10 1015.5 1010.8
02 22.03 СЗ 12 50 км ясно -1.4 -6.6 68 -10 -10 1017.0 1012.3
03 22.03 СЗ 11
{17}
50 км ясно -1.7 -6.9 68 -10 -10 1018.2 1013.6
04 22.03 СЗ 11
{15}
50 км ясно -1.9 -7.1 68 -11 -11 1019.3 1014.6
05 22.03 СЗ 12
{15}
50 км ясно -2.0 -6.9 69 -11 -11 1020.7 1016.0
06 22.03 З 12
{15}
50 км ясно -1.7 -6.6 69 -11 -11 1022.0 1017.3 -2.3
07 22.03 З 9 50 км ясно -0.9 -6.2 67 -9 -8 1022.6 1018.0
08 22.03 З 9
{14}
н/о ясно +0.1 -5.5 66 -7 -7 1023.5 1018.9
09 22.03 З 7
{12}
45 км ясно +2.1 -4.9 60 -4 -3 1024.0 1019.3
10 22.03 З 6
{11}
45 км ясно +3.1 -4.1 59 -2 -0 1024.2 1019.5
11 22.03 З 5
{10}
45 км ясно +4.4 -5.7 48 0 +3 1023.9 1019.3
12 22.03 З 3
{9}
50 км ясно +5.7 -7.7 37 +3 +7 1023.5 1018.9
13 22.03 Ю 4 50 км ясно +5.4 -5.0 47 +2 +4 1022.4 1017.8
14 22.03 Ю 8
{12}
50 км ясно +3.6 -3.4 60 -2 -2 1021.2 1016.6
15 22.03 Ю 8 50 км ясно +1.9 -2.7 72 -5 -5 1020.3 1015.7
16 22.03 Ю 10
{14}
50 км 1/0
[]
+0.7 -2.5 79 -7 -7 1019.1 1014.5
17 22.03 Ю 12
{16}
50 км ясно +0.5 -2.7 79 -8 -8 1018.0 1013.4
18 22.03 Ю 11
{16}
50 км 8/0
[]
+0.3 -3.0 78 -8 -8 1016.4 1011.8 -1.9 +6.8
20 22.03 Ю 10
{20}
45 км 10/4 1470 м
[]
+0.8 -2.6 78 -7 -7 1013.5 1008.9
21 22.03 Ю 11 50 км в посл. час снег {ливн. осадки} 10/10 1200 м
[]
+0.7 -1.5 85 -8 -8 1011.8 1007.2 0.1
22 22.03 Ю 11
{19}
50 км {ливн. осадки, снег} 10/6 1500 м
[]
+1.6 -1.3 81 -6 -6 1009.4 1004.8
23 22.03 Ю 12
{21}
50 км {ливн. осадки, снег} 9/8
[]
+1.4 -0.8 85 -7 -7 1007.5 1003.0
00 23.03 Ю 12 50 км {ливн. осадки, снег} 8/8 1440 м
[]
+2.3 -2.1 73 -5 -5 1005.7 1001.1
01 23.03 Ю 10
{20}
50 км 10/10
[]
+1.8 -1.8 77 -6 -6 1003.7 999.2
02 23.03 Ю 9 50 км 10/10
[]
+2.3 -1.4 77 -5 -5 1002.6 998.1
03 23.03 Ю 9
{15}
50 км 10/0 2000 м
[]
+1.7 -0.7 84 -6 -6 1001.4 996.9
04 23.03 Ю 9 50 км 10/10 2000 м
[]
+1.7 -0.4 86 -6 -6 1000.4 995.9
05 23.03 Ю 9
{14}
19 км слаб. дождь {осадки} 10/3 660 м
[]
+1.7 0.0 88 -6 -6 999.4 994.9
06 23.03 ЮЗ 8
{14}
40 км слаб. ливневой дождь 10/10 930 м
[]
+1.7 +0.3 90 -5 -5 998.8 994.2 +0.2 +2.3
07 23.03 ЮЗ 7 50 км в посл. час дождь {ливн. осадки, метель} 10/10 1410 м
[]
+2.3 +0.5 88 -4 -4 998.0 993.5
08 23.03 ЮЗ 8
{12}
24 км слаб. дождь 10/4 400 м
[]
+2.2 +1.1 92 -5 -5 997.8 993.3 0.2
09 23.03 ЮЗ 8 50 км в посл. час дождь {ливн. осадки} 10/10 960 м
[]
+2.5 +1.2 91 -4 -4 997.6 993.1
10 23.03 Ю 6
{12}
50 км в посл. час дождь {ливн. осадки} 10/3 570 м
[]
+2.0 +1.2 94 -4 -4 997.3 992.8 0.5
11 23.03 Ю 7
{11}
50 км {ливн. осадки, дождь} 10/5 2000 м
[]
+2.5 +1.2 91 -4 -4 996.6 992.1
12 23.03 Ю 7
{11}
50 км {ливн. осадки, дождь} 10/0
[]
+2.6 +0.9 89 -4 -3 996.4 991.9
13 23.03 ЮЗ 7
{12}
50 км 10/1
[]
+4.4 +1.4 81 -1 -1 995.9 991.4
14 23.03 З 9
{18}
50 км слаб. ливневой дождь 10/0
[]
+4.2 -1.5 66 -2 -2 995.9 991.4 0.5
15 23.03 З 11 50 км в посл. час дождь {ливн. осадки} 5/0
[]
+5.4 -4.6 48 -1 -1 995.5 991.0 0.0
16 23.03 ЮЗ 11
{16}
50 км {ливн. осадки, дождь} 1/0
[]
+4.3 -2.8 60 -2 -2 995.0 990.6
17 23.03 Ю 8
{15}
50 км {ливн. осадки, дождь} ясно +3.0 -2.8 66 -3 -3 994.6 990.2
18 23.03 ЮЗ 9
{15}
50 км {ливн. осадки, дождь} ясно +2.6 -2.5 69 -4 -4 994.0 989.5 +1.6 +6.4

 

Местоположение метеостанции Бюроклубб (Швеция): широта 64.48 долгота 21.58 высота над уровнем моря 43 м.

В архиве по умолчанию представлена погода в Бюроклуббе за последнюю неделю. Архивные данные за месяц целиком и за предыдущие месяцы, начиная с января 2011 года, Вы можете получить, выбрав интересующий диапазон дат из раскрывающегося списка и нажав кнопку "Ввод!".


*Определитесь, кто Вы:
робот инопланетянин человек

Внимание! Время в таблицах - всемирное. Для получения местного времени необходимо прибавить поправку, которая равна 1 ч.

Смотрите также архив погоды в соседних городах и на ближайших метеорологических станциях:

Погода в Хокмарксбергете (Швеция) (17 км)
Погода в Скеллефтеа (Швеция) (29 км)
Погода в Пите-Роннскаре (Швеция) (61 км)
Погода на Хольмёне (Швеция) (83 км)
Погода на Танкаре (Финляндия) (85 км)
Погода в Петистраске (Швеция) (90 км)
Погода на Острове Улкокалла (Финляндия) (91 км)
Погода на Острове Каллан (Финляндия) (93 км)
Погода в Умео (Швеция) (98 км)
Погода в Родкаллене (Швеция) (101 км)

Пояснения к столбцам:

Ветер - указаны скорость ветра в м/с - средняя за 10 мин, порывы в срок и между сроками (в фигурных скобках) и направление, откуда дует ветер: С - северный, СВ - северо-восточный, В - восточный, ЮВ - юго-восточный, Ю - южный, ЮЗ - юго-западный, З - западный, СЗ - северо-западный.
Видимость - горизонтальная дальность видимости в метрах или километрах. При видимости от 1 до 10 км при отсутствии осадков обычно наблюдается дымка, при ухудшении видимости до 1 км и менее - туман. В сухую погоду видимость может ухудшаться дымом, пылью или мглою.
Явления - указаны атмосферные явления, наблюдавшиеся в срок или в последний час перед сроком; фигурными скобками обозначены явления, наблюдавшиеся между сроками (за 1-3 часа до срока); квадратными скобками обозначены град или гололедные отложения с указанием их диаметра в мм.
Облачность - указаны через наклонную черту общая и нижняя облачность в баллах и высота нижней границы облаков в метрах; квадратными скобками обозначены формы облаков: Ci - перистые, Cs - перисто-слоистые, Cc - перисто-кучевые, Ac - высококучевые, As - высокослоистые, Sc - слоисто-кучевые, Ns - слоисто-дождевые, Cu - кучевые, Cb - кучево-дождевые. Подробнее классификацию облаков см. в Атласе облаков (PDF).
T - Температура воздуха - температура, измеренная на высоте 2 м над землей.
Td - Температура точки росы - температура, при понижении до которой содержащийся в воздухе водяной пар достигнет насыщения.
f - Относительная влажность воздуха - влажноcть воздуха, измеренная на высоте 2 м над землей.
Te - Эффективная температура - температура, которую ощущает одетый по сезону человек в тени. Характеристика душности погоды. При расчете учитывается влияние влажности воздуха и скорости ветра на теплоощущения человека.
Tes - Эффективная температура на солнце - температура, которую ощущает человек, с поправкой на солнечный нагрев. Характеристика знойности погоды. Зависит от высоты солнца над горизонтом, облачности и скорости ветра. Ночью, в пасмурную погоду, а также при ветре 12 м/с и более поправка равна нулю.
P - Атмосферное давление - приведенное к уровню моря атмосферное давление.
Po - Атмосферное давление - измеренное на уровне метеостанции атмосферное давление.
Tmin - Минимальная температура - минимум температуры воздуха на высоте 2 м над землей.
Tmax - Максимальная температура - максимум температуры воздуха на высоте 2 м над землей.
R - Количество осадков - Количество выпавших осадков за период времени, мм. При наведении курсора мыши на число - период времени, за который выпало указанное количество осадков.
R24 - Количество осадков - Количество выпавших осадков за 24 часа, мм.
S - Снежный покров - Высота снежного покрова, см. При наведении курсора мыши на число - состояние снежного покрова и степень покрытия местности в баллах.